Total_Precipitation_Accumulation
0.93 1.11 0.94 0.62 0.57 0.47 0.42 0.48 0.39 0.26 0.25 0.31 0.29 0.22 0.16 0.15 0.17 0.18 0.18 0.19 0.20 0.24 0.27 0.28 0.34 0.36 0.42 0.51 0.56 0.64 0.70 0.84 0.99 1.11 1.26 1.19 1.12 1.15 1.16 1.12 1.11 1.09 1.17 1.23
1.06 0.94 0.51 0.33 0.38 0.46 0.50 0.56 0.43 0.29 0.25 0.36 0.33 0.24 0.17 0.15 0.16 0.17 0.15 0.17 0.21 0.22 0.26 0.28 0.34 0.37 0.42 0.52 0.56 0.64 0.73 0.83 0.92 1.02 1.13 1.21 1.16 1.16 1.22 1.18 1.15 1.12 1.11 1.16
0.77 0.52 0.28 0.41 0.53 0.64 0.60 0.50 0.39 0.35 0.33 0.41 0.44 0.37 0.21 0.17 0.14 0.15 0.15 0.14 0.21 0.25 0.26 0.30 0.35 0.39 0.43 0.52 0.57 0.62 0.73 0.83 0.90 1.06 1.18 1.28 1.42 1.40 1.40 1.38 1.26 1.16 1.12 1.10
0.56 0.33 0.33 0.51 0.58 0.66 0.64 0.33 0.34 0.40 0.58 0.65 0.54 0.62 0.27 0.20 0.17 0.16 0.15 0.13 0.18 0.23 0.25 0.30 0.34 0.39 0.42 0.47 0.59 0.66 0.77 0.85 0.90 1.09 1.24 1.20 1.31 1.34 1.25 1.18 1.22 1.19 1.14 1.11
0.72 0.39 0.41 0.52 0.42 0.46 0.49 0.29 0.39 0.50 0.68 0.78 0.56 0.62 0.33 0.18 0.19 0.16 0.13 0.12 0.15 0.19 0.20 0.24 0.28 0.31 0.36 0.41 0.54 0.66 0.79 0.89 0.93 1.02 1.21 1.25 1.18 1.17 1.20 1.22 1.21 1.24 1.23 1.17
0.60 0.41 0.47 0.41 0.29 0.35 0.47 0.57 0.68 0.78 1.13 1.33 0.51 0.48 0.38 0.31 0.32 0.22 0.14 0.12 0.14 0.16 0.19 0.21 0.22 0.25 0.34 0.41 0.50 0.62 0.75 0.87 0.94 0.96 1.09 1.24 1.19 1.15 1.15 1.22 1.26 1.25 1.28 1.25
0.75 0.54 0.44 0.38 0.49 0.61 0.83 1.25 1.82 1.92 1.92 1.13 0.25 0.36 0.42 0.31 0.26 0.26 0.20 0.15 0.14 0.15 0.19 0.21 0.21 0.24 0.29 0.36 0.46 0.56 0.69 0.79 0.86 0.91 0.99 1.06 1.17 1.13 1.05 1.03 1.11 1.20 1.27 1.23
0.86 0.70 0.50 0.45 0.56 0.79 0.89 1.12 1.43 1.37 0.93 0.38 0.19 0.33 0.34 0.23 0.17 0.16 0.13 0.12 0.13 0.13 0.15 0.17 0.20 0.24 0.26 0.28 0.33 0.46 0.57 0.73 0.87 0.92 0.94 0.98 1.06 1.16 1.08 1.00 0.99 1.06 1.14 1.10
0.85 0.60 0.36 0.35 0.34 0.51 0.79 0.87 0.71 0.90 0.66 0.43 0.32 0.28 0.20 0.10 0.08 0.10 0.10 0.10 0.12 0.14 0.15 0.16 0.18 0.22 0.24 0.29 0.29 0.38 0.47 0.63 0.84 0.98 0.98 0.97 1.01 1.08 1.08 1.00 0.97 1.00 1.02 1.05
0.91 0.71 0.36 0.33 0.44 0.56 0.65 0.79 0.95 1.30 1.08 0.59 0.33 0.28 0.29 0.17 0.14 0.11 0.11 0.12 0.12 0.14 0.17 0.17 0.17 0.20 0.22 0.26 0.30 0.34 0.43 0.51 0.65 0.87 1.03 1.02 0.99 0.98 1.03 1.06 1.02 0.99 0.99 1.01
0.88 0.92 0.57 0.51 0.73 0.77 0.75 1.02 1.24 1.26 0.92 0.68 0.44 0.39 0.36 0.27 0.21 0.18 0.14 0.14 0.14 0.14 0.17 0.17 0.17 0.20 0.23 0.26 0.32 0.37 0.43 0.49 0.56 0.68 0.86 0.98 0.99 1.01 1.05 1.08 1.03 1.04 1.02 1.01
0.85 1.08 0.75 0.47 0.46 0.46 0.63 0.87 1.07 1.28 0.91 0.52 0.46 0.41 0.29 0.22 0.20 0.18 0.16 0.13 0.11 0.12 0.15 0.16 0.16 0.21 0.25 0.30 0.34 0.40 0.46 0.48 0.52 0.60 0.72 0.85 0.95 1.00 1.05 1.03 1.05 1.11 1.11 1.05
1.23 1.58 1.30 0.87 0.73 0.67 0.77 0.70 0.75 0.90 0.85 0.56 0.44 0.34 0.19 0.14 0.13 0.13 0.15 0.14 0.13 0.12 0.13 0.15 0.18 0.22 0.27 0.32 0.35 0.41 0.47 0.46 0.48 0.59 0.69 0.80 0.92 0.95 0.98 0.94 0.97 1.13 1.24 1.21
1.53 1.61 1.14 0.92 0.76 0.71 0.67 0.54 0.53 0.82 1.00 0.55 0.29 0.24 0.16 0.13 0.13 0.12 0.15 0.17 0.16 0.13 0.14 0.16 0.20 0.23 0.25 0.29 0.34 0.38 0.45 0.49 0.51 0.55 0.66 0.75 0.85 0.88 0.87 0.87 0.86 0.99 1.16 1.26
1.31 1.29 0.59 0.30 0.25 0.33 0.37 0.34 0.38 0.52 0.51 0.42 0.24 0.20 0.19 0.17 0.17 0.17 0.17 0.16 0.16 0.14 0.15 0.17 0.19 0.22 0.27 0.31 0.34 0.37 0.42 0.50 0.56 0.54 0.62 0.66 0.74 0.83 0.84 0.81 0.84 0.92 1.05 1.13
1.21 1.17 0.58 0.31 0.19 0.24 0.29 0.24 0.25 0.28 0.24 0.22 0.17 0.19 0.19 0.18 0.16 0.16 0.16 0.16 0.17 0.16 0.15 0.17 0.18 0.20 0.27 0.32 0.36 0.41 0.44 0.48 0.55 0.55 0.59 0.62 0.70 0.82 0.86 0.80 0.83 0.93 1.03 1.08
1.18 1.19 1.02 0.57 0.25 0.45 0.50 0.29 0.25 0.26 0.25 0.22 0.24 0.25 0.21 0.19 0.18 0.19 0.19 0.19 0.18 0.17 0.16 0.16 0.21 0.24 0.27 0.32 0.33 0.41 0.45 0.49 0.54 0.55 0.56 0.62 0.71 0.76 0.84 0.84 0.86 0.96 1.05 1.07
0.98 1.15 1.38 0.92 0.66 0.93 0.46 0.21 0.21 0.26 0.27 0.24 0.22 0.17 0.18 0.20 0.21 0.22 0.21 0.21 0.20 0.21 0.22 0.20 0.23 0.26 0.26 0.29 0.29 0.34 0.40 0.52 0.59 0.58 0.56 0.61 0.69 0.72 0.81 0.86 0.88 0.99 1.08 1.05
0.54 1.03 1.53 1.26 0.91 0.48 0.26 0.24 0.31 0.40 0.40 0.28 0.20 0.15 0.13 0.16 0.20 0.25 0.20 0.20 0.22 0.23 0.26 0.25 0.24 0.25 0.24 0.27 0.28 0.28 0.33 0.46 0.57 0.61 0.55 0.58 0.67 0.72 0.79 0.84 0.91 0.99 1.08 1.04
0.53 0.97 1.63 1.38 1.00 0.49 0.32 0.22 0.25 0.37 0.52 0.29 0.21 0.18 0.17 0.20 0.31 0.30 0.24 0.22 0.22 0.21 0.23 0.25 0.24 0.22 0.24 0.27 0.29 0.27 0.30 0.39 0.50 0.58 0.51 0.54 0.61 0.65 0.73 0.80 0.89 0.97 0.98 0.97
0.93 1.40 1.58 1.14 0.89 0.37 0.24 0.22 0.28 0.57 0.64 0.33 0.25 0.24 0.24 0.30 0.33 0.28 0.27 0.27 0.26 0.25 0.23 0.22 0.23 0.25 0.27 0.28 0.28 0.28 0.31 0.35 0.44 0.56 0.52 0.54 0.58 0.61 0.69 0.78 0.82 0.89 0.93 0.92
0.75 1.02 0.99 0.87 0.93 0.48 0.28 0.34 0.58 0.66 0.36 0.28 0.26 0.25 0.25 0.25 0.22 0.21 0.24 0.29 0.31 0.28 0.24 0.24 0.24 0.25 0.26 0.27 0.29 0.31 0.34 0.36 0.42 0.52 0.53 0.58 0.63 0.65 0.68 0.74 0.74 0.78 0.87 0.91
0.55 0.72 0.80 0.75 0.61 0.40 0.35 0.43 0.46 0.38 0.31 0.25 0.25 0.25 0.24 0.23 0.22 0.23 0.25 0.30 0.33 0.30 0.27 0.26 0.26 0.24 0.24 0.26 0.31 0.35 0.39 0.39 0.44 0.50 0.52 0.59 0.67 0.70 0.71 0.70 0.72 0.77 0.83 0.90
0.45 0.44 0.53 0.50 0.36 0.28 0.26 0.27 0.26 0.24 0.25 0.24 0.24 0.24 0.24 0.23 0.21 0.23 0.25 0.29 0.31 0.31 0.30 0.30 0.30 0.28 0.26 0.26 0.30 0.37 0.42 0.41 0.45 0.48 0.50 0.56 0.62 0.69 0.72 0.68 0.67 0.70 0.79 0.90
0.36 0.38 0.42 0.37 0.24 0.23 0.22 0.21 0.20 0.19 0.18 0.18 0.18 0.18 0.20 0.22 0.22 0.23 0.26 0.30 0.33 0.34 0.34 0.32 0.32 0.32 0.30 0.29 0.32 0.39 0.42 0.42 0.46 0.45 0.45 0.49 0.53 0.65 0.75 0.75 0.70 0.69 0.70 0.86
0.24 0.30 0.37 0.32 0.23 0.28 0.25 0.20 0.19 0.19 0.18 0.19 0.19 0.17 0.16 0.18 0.21 0.22 0.23 0.27 0.35 0.39 0.37 0.35 0.34 0.34 0.34 0.35 0.38 0.42 0.43 0.43 0.44 0.44 0.43 0.45 0.50 0.59 0.69 0.74 0.76 0.84 0.82 0.84